[Date Prev][Date Next][Thread Prev][Thread Next] - [Date Index][Thread Index][Author Index]

MIR & ISS Keps 2-12



MIR
1 16609U 86017A   99043.10271614  .00035586  00000-0  28265-3 0  2087
2 16609  51.6618 264.6960 0014368 122.1200 238.1274 15.70764442741722


ISS
1 25544U 98067A   99043.18419020  .00001038  00000-0  20612-4 0  2990
2 25544  51.5931 106.7213 0004545 108.4764 251.6693 15.57387271 13095

----
Via the sarex mailing list at AMSAT.ORG courtesy of AMSAT-NA.
To unsubscribe, send "unsubscribe sarex" to Majordomo@amsat.org



AMSAT Top AMSAT Home